Hourly Data Report for August 10, 2019

TORONTO CITY
ONTARIO
Current Station Operator: ECCC - MSC

43°40'00.000" N
79°24'00.000" W
112.50 m
6158355
71508
XTO

Download Data

Hourly Data (August 2019)
Hourly Data Report for August 10, 2019
TIME
LST
Temp Definition
°C
Dew Point Definition
°C
Rel Hum Definition
%
Precip. Amount Definition
mm

Wind Dir Definition
10's deg

Wind Spd Definition
km/h
Visibility Definition
km
Stn Press Definition
kPa
Hmdx Definition


Wind Chill Definition


Weather Definition


00:00 18.5 9.8 57 0.0       99.73     LegendNANA
01:00 17.6 10.0 61 0.0       99.72     LegendNANA
02:00 17.0 9.9 63 0.0       99.72     LegendNANA
03:00 16.6 9.8 64 0.0       99.76     LegendNANA
04:00 16.0 9.9 67 0.0       99.79     LegendNANA
05:00 15.4 10.2 71 0.0       99.85     LegendNANA
06:00 15.3 10.4 73 0.0       99.89     LegendNANA
07:00 16.6 10.8 69 0.0       99.95     LegendNANA
08:00 18.4 10.2 59 0.0       100.00     LegendNANA
09:00 20.4 10.5 53 0.0       100.01     LegendNANA
10:00 21.9 7.2 39 0.0       100.00     LegendNANA
11:00 23.4 7.3 35 0.0       99.97     LegendNANA
12:00 23.5 8.0 37 0.0       99.93     LegendNANA
13:00 23.9 7.1 34 0.0       99.90     LegendNANA
14:00 25.0 7.8 33 0.0       99.87 25   LegendNANA
15:00 23.9 6.3 32 0.0       99.88     LegendNANA
16:00 23.4 7.8 37 0.0       99.90     LegendNANA
17:00 23.1 8.7 40 0.0       99.91     LegendNANA
18:00 22.7 8.0 39 0.0       99.96     LegendNANA
19:00 21.7 6.4 37 0.0       100.02     LegendNANA
20:00 20.8 7.0 41 0.0       100.09     LegendNANA
21:00 18.6 8.0 50 0.0       100.14     LegendNANA
22:00 18.0 8.8 55 0.0       100.15     LegendNANA
23:00 17.6 8.4 55 0.0       100.16     LegendNANA

Notes on Data Quality.

Legend

  • E = Estimated
  • M = Missing
  • NA = Not Available*
  • [empty] = Indicates an unobserved value
Date modified: